This demonstration page uses our WeatherBlox Daily Observations layout. Learn more.

Left ArrowRight Arrow

36.17497, -115.13722

Hourly Observations for March 29, 2021

Temp ( °F °C ) Dew Point ( °F °C ) Humidity (%) Winds ( mph kmh ) Pressure ( in mb ) Visibility ( mi km ) Precip ( " mm )
12:53 am 00:53 Clear 58 14.4 25 -3.9 28 28 NW 6 9 30.01 1016 10 16 0.00 0.00
1:53 am 01:53 Clear 57 13.9 22 -5.6 26 26 NW 5 7 29.99 1016 10 16 0.00 0.00
2:53 am 02:53 Clear 55 12.8 21 -6.1 26 26 NW 6 9 29.96 1015 10 16 0.00 0.00
3:53 am 03:53 Clear 53 11.7 21 -6.1 28 28 NW 8 13 29.93 1014 10 16 0.00 0.00
4:53 am 04:53 Clear 51 10.6 20 -6.7 29 29 NNW 8 13 29.91 1013 10 16 0.00 0.00
5:53 am 05:53 Clear 52 11.1 19 -7.2 27 27 WNW 7 11 29.89 1012 10 16 0.00 0.00
6:53 am 06:53 Sunny 52 11.1 20 -6.7 28 28 NW 6 9 29.89 1012 10 16 0.00 0.00
7:53 am 07:53 Sunny 58 14.4 21 -6.1 24 24 NNW 7 11 29.89 1012 10 16 0.00 0.00
8:53 am 08:53 Sunny 66 18.9 20 -6.7 17 17 NNW 9 15 29.89 1012 10 16 0.00 0.00
9:53 am 09:53 Sunny 69 20.6 19 -7.2 15 15 NE 7 11 29.89 1012 10 16 0.00 0.00
10:53 am 10:53 Sunny 70 21.1 19 -7.2 14 14 E 3 6 29.87 1012 10 16 0.00 0.00
11:53 am 11:53 Sunny 74 23.3 18 -7.8 12 12 E 3 6 29.83 1010 10 16 0.00 0.00
12:53 pm 12:53 Sunny 76 24.4 17 -8.3 11 11 Calm 29.79 1009 10 16 0.00 0.00
1:53 pm 13:53 Sunny 82 27.8 15 -9.4 8 8 Calm 29.73 1007 10 16 0.00 0.00
2:53 pm 14:53 Sunny 85 29.4 12 -11.1 6 6 ESE 8 13 29.69 1005 10 16 0.00 0.00
3:53 pm 15:53 Sunny 84 28.9 11 -11.7 6 6 SSE 7 11 29.66 1004 10 16 0.00 0.00
4:53 pm 16:53 Sunny 85 29.4 11 -11.7 6 6 VRB 3 6 29.63 1003 10 16 0.00 0.00
5:53 pm 17:53 Sunny 84 28.9 8 -13.3 5 5 SSW 6 9 29.62 1003 10 16 0.00 0.00
6:53 pm 18:53 Sunny 81 27.2 6 -14.4 5 5 WSW 12 19 29.61 1003 10 16 0.00 0.00
7:53 pm 19:53 Clear 79 26.1 3 -16.1 5 5 WSW 10 17 29.61 1003 10 16 0.00 0.00
8:53 pm 20:53 Clear 75 23.9 8 -13.3 7 7 NNW 6 9 29.62 1003 10 16 0.00 0.00
10:53 pm 22:53 Clear 74 23.3 11 -11.7 9 9 NW 21 33 29.66 1004 10 16 0.00 0.00
11:53 pm 23:53 Clear 73 22.8 13 -10.6 10 10 NW 16 26 29.71 1006 10 16 0.00 0.00

Powered by AerisWeather